Time,TemperatureF,DewpointF,PressureIn,WindDirection,WindDirectionDegrees,WindSpeedMPH,WindSpeedGustMPH,Humidity,HourlyPrecipIn,Conditions,Clouds,dailyrainin,SolarRadiationWatts/m^2,SoftwareType,DateUTC
2013-09-09 00:03:00,54.0,53.0,-100.00,SSE,147,3.0,9.0,95,0.00,,,0.01,1.000000,,2013-09-09 05:03:00,
2013-09-09 00:43:00,54.0,53.0,-100.00,SE,144,3.0,5.0,98,0.00,,,0.01,0.000000,,2013-09-09 05:43:00,
2013-09-09 00:53:00,54.0,53.0,-100.00,SE,144,3.0,5.0,98,0.00,,,0.01,0.000000,,2013-09-09 05:53:00,
2013-09-09 01:02:00,54.0,53.0,-100.00,SE,144,3.0,5.0,98,0.00,,,0.01,0.000000,,2013-09-09 06:02:00,
2013-09-09 01:12:00,54.0,53.0,-100.00,SE,144,3.0,5.0,98,0.00,,,0.01,0.000000,,2013-09-09 06:12:00,
2013-09-09 01:42:00,55.0,54.0,-100.00,SE,145,3.0,5.0,96,0.00,,,0.01,0.000000,,2013-09-09 06:42:00,
2013-09-09 01:52:00,55.0,54.0,-100.00,SE,145,3.0,5.0,96,0.00,,,0.01,0.000000,,2013-09-09 06:52:00,
2013-09-09 02:01:00,55.0,54.0,-100.00,SE,145,3.0,5.0,96,0.00,,,0.01,0.000000,,2013-09-09 07:01:00,
2013-09-09 02:11:00,55.0,54.0,-100.00,SE,145,3.0,5.0,96,0.00,,,0.01,0.000000,,2013-09-09 07:11:00,
2013-09-09 02:43:00,55.0,54.0,-100.00,SE,138,4.0,6.0,97,0.00,,,0.01,1.000000,,2013-09-09 07:43:00,
2013-09-09 02:52:00,55.0,54.0,-100.00,SE,138,4.0,6.0,97,0.00,,,0.01,1.000000,,2013-09-09 07:52:00,
2013-09-09 03:02:00,55.0,54.0,-100.00,SE,138,4.0,6.0,97,0.00,,,0.01,1.000000,,2013-09-09 08:02:00,
2013-09-09 03:11:00,55.0,54.0,-100.00,SE,138,4.0,6.0,97,0.00,,,0.01,1.000000,,2013-09-09 08:11:00,
2013-09-09 03:43:00,55.0,54.0,-100.00,SE,143,3.0,6.0,97,0.01,,,0.02,0.000000,,2013-09-09 08:43:00,
2013-09-09 03:52:00,55.0,54.0,-100.00,SE,143,3.0,6.0,97,0.01,,,0.02,0.000000,,2013-09-09 08:52:00,
2013-09-09 04:02:00,55.0,54.0,-100.00,SE,143,3.0,6.0,97,0.01,,,0.02,0.000000,,2013-09-09 09:02:00,
2013-09-09 04:12:00,55.0,54.0,-100.00,SE,143,3.0,6.0,97,0.01,,,0.02,0.000000,,2013-09-09 09:12:00,
2013-09-09 04:43:00,56.0,55.0,-100.00,SE,135,3.0,6.0,96,0.00,,,0.02,1.000000,,2013-09-09 09:43:00,
2013-09-09 04:54:00,56.0,55.0,-100.00,SE,135,3.0,6.0,96,0.00,,,0.02,1.000000,,2013-09-09 09:54:00,
2013-09-09 05:03:00,56.0,55.0,-100.00,SE,135,3.0,6.0,96,0.00,,,0.02,1.000000,,2013-09-09 10:03:00,
2013-09-09 05:12:00,56.0,55.0,-100.00,SE,135,3.0,6.0,96,0.00,,,0.02,1.000000,,2013-09-09 10:12:00,
2013-09-09 05:42:00,56.0,55.0,-100.00,SSE,154,4.0,6.0,96,0.00,,,0.02,0.000000,,2013-09-09 10:42:00,
2013-09-09 05:52:00,56.0,55.0,-100.00,SSE,154,4.0,6.0,96,0.00,,,0.02,0.000000,,2013-09-09 10:52:00,
2013-09-09 06:02:00,56.0,55.0,-100.00,SSE,154,4.0,6.0,96,0.00,,,0.02,0.000000,,2013-09-09 11:02:00,
2013-09-09 06:12:00,56.0,55.0,-100.00,SSE,154,4.0,6.0,96,0.00,,,0.02,0.000000,,2013-09-09 11:12:00,
2013-09-09 06:42:00,57.0,56.0,-100.00,SSE,154,4.0,7.0,98,0.00,,,0.02,1.000000,,2013-09-09 11:42:00,
2013-09-09 06:52:00,57.0,56.0,-100.00,SSE,154,4.0,7.0,98,0.00,,,0.02,1.000000,,2013-09-09 11:52:00,
2013-09-09 07:02:00,57.0,56.0,-100.00,SSE,154,4.0,7.0,98,0.00,,,0.02,1.000000,,2013-09-09 12:02:00,
2013-09-09 07:12:00,57.0,56.0,-100.00,SSE,154,4.0,7.0,98,0.00,,,0.02,1.000000,,2013-09-09 12:12:00,
2013-09-09 07:42:00,57.0,57.0,-100.00,SSE,158,4.0,7.0,100,0.00,,,0.02,4.000000,,2013-09-09 12:42:00,
2013-09-09 07:52:00,57.0,57.0,-100.00,SSE,158,4.0,7.0,100,0.00,,,0.02,4.000000,,2013-09-09 12:52:00,
2013-09-09 08:01:00,57.0,57.0,-100.00,SSE,158,4.0,7.0,100,0.00,,,0.02,4.000000,,2013-09-09 13:01:00,
2013-09-09 08:11:00,57.0,57.0,-100.00,SSE,158,4.0,7.0,100,0.00,,,0.02,4.000000,,2013-09-09 13:11:00,
2013-09-09 08:42:00,58.0,58.0,-100.00,South,169,4.0,7.0,100,0.01,,,0.03,10.000000,,2013-09-09 13:42:00,
2013-09-09 08:52:00,58.0,58.0,-100.00,South,169,4.0,7.0,100,0.01,,,0.03,10.000000,,2013-09-09 13:52:00,
2013-09-09 09:02:00,58.0,58.0,-100.00,South,169,4.0,7.0,100,0.01,,,0.03,10.000000,,2013-09-09 14:02:00,
2013-09-09 09:12:00,58.0,58.0,-100.00,South,169,4.0,7.0,100,0.01,,,0.03,10.000000,,2013-09-09 14:12:00,
2013-09-09 09:42:00,58.0,58.0,-100.00,SSE,156,4.0,7.0,100,0.00,,,0.03,22.000000,,2013-09-09 14:42:00,
2013-09-09 09:52:00,58.0,58.0,-100.00,SSE,156,4.0,7.0,100,0.00,,,0.03,22.000000,,2013-09-09 14:52:00,
2013-09-09 10:02:00,58.0,58.0,-100.00,SSE,156,4.0,7.0,100,0.00,,,0.03,22.000000,,2013-09-09 15:02:00,
2013-09-09 10:11:00,58.0,58.0,-100.00,SSE,156,4.0,7.0,100,0.00,,,0.03,22.000000,,2013-09-09 15:11:00,
2013-09-09 10:13:00,59.0,59.0,-100.00,SE,146,5.0,8.0,100,0.04,,,0.07,27.000000,,2013-09-09 15:13:00,
2013-09-09 10:43:00,59.0,59.0,-100.00,SE,146,5.0,8.0,100,0.04,,,0.07,27.000000,,2013-09-09 15:43:00,
2013-09-09 10:53:00,59.0,59.0,-100.00,SE,146,5.0,8.0,100,0.04,,,0.07,27.000000,,2013-09-09 15:53:00,
2013-09-09 11:04:00,59.0,59.0,-100.00,SE,146,5.0,8.0,100,0.04,,,0.07,27.000000,,2013-09-09 16:04:00,
2013-09-09 11:44:00,60.0,60.0,-100.00,SSE,148,4.0,12.0,100,0.07,,,0.14,34.000000,,2013-09-09 16:44:00,
2013-09-09 11:54:00,60.0,60.0,-100.00,SSE,148,4.0,12.0,100,0.07,,,0.14,34.000000,,2013-09-09 16:54:00,
2013-09-09 12:03:00,60.0,60.0,-100.00,SSE,148,4.0,12.0,100,0.07,,,0.14,34.000000,,2013-09-09 17:03:00,
2013-09-09 12:12:00,60.0,60.0,-100.00,SSE,148,4.0,12.0,100,0.07,,,0.14,34.000000,,2013-09-09 17:12:00,
2013-09-09 12:13:00,61.0,61.0,-100.00,SSE,152,3.0,8.0,100,0.09,,,0.23,52.000000,,2013-09-09 17:13:00,
2013-09-09 12:43:00,61.0,61.0,-100.00,SSE,152,3.0,8.0,100,0.09,,,0.23,52.000000,,2013-09-09 17:43:00,
2013-09-09 12:53:00,61.0,61.0,-100.00,SSE,152,3.0,8.0,100,0.09,,,0.23,52.000000,,2013-09-09 17:53:00,
2013-09-09 13:02:00,61.0,61.0,-100.00,SSE,152,3.0,8.0,100,0.09,,,0.23,52.000000,,2013-09-09 18:02:00,
2013-09-09 13:42:00,61.0,61.0,-100.00,SSE,147,5.0,8.0,100,0.05,,,0.28,37.000000,,2013-09-09 18:42:00,
2013-09-09 13:52:00,61.0,61.0,-100.00,SSE,147,5.0,8.0,100,0.05,,,0.28,37.000000,,2013-09-09 18:52:00,
2013-09-09 14:02:00,61.0,61.0,-100.00,SSE,147,5.0,8.0,100,0.05,,,0.28,37.000000,,2013-09-09 19:02:00,
2013-09-09 14:12:00,61.0,61.0,-100.00,SSE,147,5.0,8.0,100,0.05,,,0.28,37.000000,,2013-09-09 19:12:00,
2013-09-09 14:43:00,61.0,61.0,-100.00,SSE,161,6.0,11.0,100,0.00,,,0.28,37.000000,,2013-09-09 19:43:00,
2013-09-09 14:52:00,61.0,61.0,-100.00,SSE,161,6.0,11.0,100,0.00,,,0.28,37.000000,,2013-09-09 19:52:00,
2013-09-09 15:03:00,61.0,61.0,-100.00,SSE,161,6.0,11.0,100,0.00,,,0.28,37.000000,,2013-09-09 20:03:00,
2013-09-09 15:12:00,61.0,61.0,-100.00,SSE,161,6.0,11.0,100,0.00,,,0.28,37.000000,,2013-09-09 20:12:00,
2013-09-09 15:42:00,60.0,60.0,-100.00,SE,144,4.0,11.0,100,0.00,,,0.28,46.000000,,2013-09-09 20:42:00,
2013-09-09 15:53:00,60.0,60.0,-100.00,SE,144,4.0,11.0,100,0.00,,,0.28,46.000000,,2013-09-09 20:53:00,
2013-09-09 16:02:00,60.0,60.0,-100.00,SE,144,4.0,11.0,100,0.00,,,0.28,46.000000,,2013-09-09 21:02:00,
2013-09-09 16:12:00,60.0,60.0,-100.00,SE,144,4.0,11.0,100,0.00,,,0.28,46.000000,,2013-09-09 21:12:00,
2013-09-09 16:13:00,61.0,61.0,-100.00,ENE,64,2.0,10.0,100,0.28,,,0.56,31.000000,,2013-09-09 21:13:00,
2013-09-09 16:44:00,61.0,61.0,-100.00,ENE,64,2.0,10.0,100,0.28,,,0.56,31.000000,,2013-09-09 21:44:00,
2013-09-09 16:54:00,61.0,61.0,-100.00,ENE,64,2.0,10.0,100,0.28,,,0.56,31.000000,,2013-09-09 21:54:00,
2013-09-09 17:05:00,61.0,61.0,-100.00,ENE,64,2.0,10.0,100,0.28,,,0.56,31.000000,,2013-09-09 22:05:00,
2013-09-09 17:43:00,61.0,61.0,-100.00,SSE,147,2.0,8.0,100,0.13,,,0.69,14.000000,,2013-09-09 22:43:00,
2013-09-09 17:54:00,61.0,61.0,-100.00,SSE,147,2.0,8.0,100,0.13,,,0.69,14.000000,,2013-09-09 22:54:00,
2013-09-09 18:03:00,61.0,61.0,-100.00,SSE,147,2.0,8.0,100,0.13,,,0.69,14.000000,,2013-09-09 23:03:00,
2013-09-09 18:12:00,61.0,61.0,-100.00,SSE,147,2.0,8.0,100,0.13,,,0.69,14.000000,,2013-09-09 23:12:00,
2013-09-09 18:43:00,62.0,62.0,-100.00,SE,137,0.0,4.0,100,0.06,,,0.75,18.000000,,2013-09-09 23:43:00,
2013-09-09 18:52:00,62.0,62.0,-100.00,SE,137,0.0,4.0,100,0.06,,,0.75,18.000000,,2013-09-09 23:52:00,
2013-09-09 19:02:00,62.0,62.0,-100.00,SE,137,0.0,4.0,100,0.06,,,0.75,18.000000,,2013-09-10 00:02:00,
2013-09-09 19:12:00,62.0,62.0,-100.00,SE,137,0.0,4.0,100,0.06,,,0.75,18.000000,,2013-09-10 00:12:00,
2013-09-09 19:42:00,62.0,62.0,-100.00,SE,145,2.0,5.0,100,0.02,,,0.77,8.000000,,2013-09-10 00:42:00,
2013-09-09 19:52:00,62.0,62.0,-100.00,SE,145,2.0,5.0,100,0.02,,,0.77,8.000000,,2013-09-10 00:52:00,
2013-09-09 20:01:00,62.0,62.0,-100.00,SE,145,2.0,5.0,100,0.02,,,0.77,8.000000,,2013-09-10 01:01:00,
2013-09-09 20:11:00,62.0,62.0,-100.00,SE,145,2.0,5.0,100,0.02,,,0.77,8.000000,,2013-09-10 01:11:00,
2013-09-09 20:42:00,62.0,62.0,-100.00,SSE,150,3.0,5.0,100,0.01,,,0.78,1.000000,,2013-09-10 01:42:00,
2013-09-09 20:53:00,62.0,62.0,-100.00,SSE,150,3.0,5.0,100,0.01,,,0.78,1.000000,,2013-09-10 01:53:00,
2013-09-09 21:02:00,62.0,62.0,-100.00,SSE,150,3.0,5.0,100,0.01,,,0.78,1.000000,,2013-09-10 02:02:00,
2013-09-09 21:12:00,62.0,62.0,-100.00,SSE,150,3.0,5.0,100,0.01,,,0.78,1.000000,,2013-09-10 02:12:00,
2013-09-09 21:42:00,63.0,63.0,-100.00,SSE,165,3.0,8.0,100,0.01,,,0.79,1.000000,,2013-09-10 02:42:00,
2013-09-09 21:52:00,63.0,63.0,-100.00,SSE,165,3.0,8.0,100,0.01,,,0.79,1.000000,,2013-09-10 02:52:00,
2013-09-09 22:02:00,63.0,63.0,-100.00,SSE,165,3.0,8.0,100,0.01,,,0.79,1.000000,,2013-09-10 03:02:00,
2013-09-09 22:12:00,63.0,63.0,-100.00,SSE,165,3.0,8.0,100,0.01,,,0.79,1.000000,,2013-09-10 03:12:00,
2013-09-09 22:13:00,62.0,62.0,-100.00,SSE,162,5.0,8.0,100,0.01,,,-99.99,1.000000,,2013-09-10 03:13:00,
2013-09-09 22:44:00,62.0,62.0,-100.00,SSE,162,5.0,8.0,100,0.01,,,-99.99,1.000000,,2013-09-10 03:44:00,
2013-09-09 22:54:00,62.0,62.0,-100.00,SSE,162,5.0,8.0,100,0.01,,,-99.99,1.000000,,2013-09-10 03:54:00,
2013-09-09 23:04:00,62.0,62.0,-100.00,SSE,162,5.0,8.0,100,0.01,,,-99.99,1.000000,,2013-09-10 04:04:00,
2013-09-09 23:13:00,62.0,62.0,-100.00,SSE,167,1.0,5.0,100,0.00,,,0.79,1.000000,,2013-09-10 04:13:00,
2013-09-09 23:43:00,62.0,62.0,-100.00,SSE,167,1.0,5.0,100,0.00,,,0.79,1.000000,,2013-09-10 04:43:00,
2013-09-09 23:53:00,62.0,62.0,-100.00,SSE,167,1.0,5.0,100,0.00,,,0.79,1.000000,,2013-09-10 04:53:00,